#timestamp,LO_Frequency,Hit,StdDev 
1511805615.0,286047000.9,N
1511805615.9,286047000.9,N
1511805635.8,286047000.4,N
1511805655.6,286047001.0,N
1511805675.5,286046998.4,N
1511805695.3,286047000.3,N
1511805715.1,286047000.9,N
1511805735.9,286047000.2,N
1511805755.7,286047002.1,N
1511805775.6,286047004.3,Y
1511805795.4,286047004.2,P
1511805815.2,286047002.7,N
1511805835.1,286047002.5,N
1511805836.0,286047002.5,N
1511805855.8,286047000.3,N
1511805875.7,286047000.0,N
1511805895.5,286047002.7,N
1511805915.3,286046998.1,N
1511805935.2,286047000.1,N
1511805955.0,286046999.7,N
1511805955.9,286046999.7,N
1511805975.8,286047000.3,N
1511805995.6,286046999.8,N
1511806015.4,286047000.4,N
1511806035.3,286047000.9,N
1511806055.1,286047000.6,N
1511806075.8,286047000.7,N
1511806095.7,286047001.0,N
1511806115.5,286046999.4,N
1511806135.4,286047000.5,N
1511806155.2,286047000.6,N
1511806175.0,286046998.9,N
1511806175.9,286046998.9,N
1511806195.8,286046998.2,N
1511806215.6,286046999.9,N
1511806235.4,286047000.0,N
1511806255.3,286047002.3,N
1511806275.1,286046999.9,N
1511806295.9,286046999.7,N
1511806315.7,286047002.7,N
1511806335.5,286047000.1,N
1511806355.4,286047002.0,N
1511806375.2,286047002.7,N
1511806395.0,286046999.9,N
1511806395.9,286046999.9,N
1511806415.8,286047000.5,N
1511806435.6,286047001.1,N
1511806455.5,286047000.6,N
1511806475.3,286047001.0,N
1511806495.1,286047001.2,N
1511806515.9,286047000.0,N
1511806535.7,286046999.9,N
1511806555.6,286047000.3,N
1511806575.4,286046998.4,N
1511806595.2,286046999.9,N
1511806615.1,286046998.3,N
1511806616.0,286046998.3,N
1511806635.8,286047000.7,N
1511806655.7,286047001.2,N
1511806675.5,286046999.9,N
1511806695.3,286046999.9,N
1511806715.2,286047000.9,N
1511806735.0,286047000.8,N
1511806735.9,286047000.8,N
1511806755.7,286046998.3,N
1511806775.6,286046998.5,N
1511806795.4,286046999.0,N
1511806815.3,286046999.0,N
1511806835.1,286046998.3,N
1511806836.0,286046998.3,N
1511806855.8,286046998.1,N
1511806875.7,286046999.0,N
1511806895.5,286046998.6,N
1511806915.4,286047000.7,N
1511806935.2,286047000.0,N
1511806955.0,286047000.4,N
1511806955.9,286047000.4,N
1511806975.8,286047000.9,N
1511806995.6,286047001.0,N
1511807015.5,286047000.1,N
1511807035.3,286046999.7,N
1511807055.1,286047002.4,N
1511807075.9,286047002.4,N
1511807095.7,286047002.5,N
1511807115.5,286046999.9,N
1511807135.4,286047000.5,N
1511807155.2,286047000.4,N
1511807175.1,286047000.7,N
1511807176.0,286047000.7,N
1511807195.8,286047000.0,N
1511807215.6,286047001.0,N
1511807235.5,286047000.6,N
1511807255.3,286047000.7,N
1511807275.2,286047001.1,N
1511807295.9,286046999.8,N
1511807315.7,286047000.9,N
1511807335.6,286047001.0,N
1511807355.4,286047000.6,N
1511807375.2,286047000.6,N
1511807395.1,286047002.6,N
1511807396.0,286047002.6,N
1511807415.8,286047001.3,N
1511807435.7,286047001.8,N
1511807455.5,286047001.4,N
1511807475.3,286047001.8,N
1511807495.2,286047001.9,N
1511807515.0,286047002.6,Y
1511807515.9,286047002.6,P
1511807535.8,286047001.1,N
1511807555.6,286047001.2,N
1511807575.4,286046999.3,N
1511807595.3,286046998.5,N
1511807615.1,286046998.2,N
1511807635.9,286047000.2,N
1511807655.7,286047002.7,N
1511807675.5,286047001.4,N
1511807695.4,286047000.2,N
1511807715.2,286047000.7,N
1511807735.1,286047000.5,N
1511807736.0,286047000.5,N
1511807755.8,286047000.9,N
1511807775.6,286047001.2,N
1511807795.5,286047001.2,N
1511807815.3,286046998.7,N
1511807835.1,286046999.0,N
1511807855.9,286046996.8,N
1511807875.7,286046996.5,N
1511807895.6,286046997.1,N
1511807915.4,286046999.6,N
1511807935.2,286047001.2,N
1511807955.1,286046998.2,N
1511807956.0,286046998.2,N
1511807975.8,286047000.8,N
1511807995.7,286046998.1,N
1511808015.5,286047001.0,N
1511808035.3,286046999.7,N
1511808055.2,286047000.5,N
1511808075.0,286046999.7,N
1511808075.9,286046999.7,N
1511808095.8,286046999.7,N
1511808115.6,286047000.1,N
1511808135.4,286047002.7,N
1511808155.3,286047000.2,N
1511808175.1,286046998.2,N
1511808195.9,286047001.1,N
1511808215.7,286046998.9,N
1511808235.5,286046999.5,N
1511808255.4,286046999.5,N
1511808275.2,286046999.0,N
1511808295.0,286046998.7,N
1511808296.0,286046998.7,N
1511808315.8,286047000.7,N
1511808335.6,286046998.2,N
1511808355.5,286047001.0,N
1511808375.3,286047002.8,N
1511808395.1,286047001.0,N
1511808415.9,286047000.6,N
1511808435.7,286047002.8,N
1511808455.6,286047000.7,N
1511808475.4,286047000.3,N
1511808495.2,286047000.0,N
1511808515.1,286046998.6,N
1511808516.0,286046998.6,N
1511808535.8,286046998.2,N
1511808555.6,286046999.4,N
1511808575.5,286046998.7,N
1511808595.3,286047001.1,N
1511808615.2,286046998.8,N
1511808635.0,286046996.5,N
1511808635.9,286046996.5,N
1511808655.7,286046996.9,N
1511808675.6,286046998.9,N
1511808695.4,286046994.9,Y
1511808715.3,286046996.6,P
1511808735.1,286046996.9,N
1511808755.8,286046997.9,N
1511808775.7,286046995.1,Y
1511808795.5,286046998.7,P
1511808815.4,286047000.3,N
1511808835.2,286047000.1,N
1511808855.0,286047002.4,N
1511808855.9,286047002.4,N
1511808875.8,286047002.0,N
1511808895.6,286047001.8,N
1511808915.5,286047000.5,N
1511808935.3,286046998.4,N
1511808955.1,286046998.7,N
1511808975.9,286046998.7,N
1511808995.7,286046999.1,N
1511809015.6,286046998.7,N
1511809035.4,286046996.6,N
1511809055.2,286046996.9,N
1511809075.1,286046999.4,N
1511809076.0,286046999.4,N
1511809095.8,286046998.7,N
1511809115.6,286046998.6,N
1511809135.5,286046997.0,N
1511809155.3,286046996.5,N
1511809175.2,286046999.2,N
1511809195.9,286046997.4,N
